DELTA 1 DEB *

Satellite information

Favourite Embed

Satellite Type and Status

DEBRISIN ORBIT

Key statistics

Satellite DELTA 1 DEB * at a glance.

Uptime

19341

Days in orbit

Revolutions

≈ 14.3

Per day

Orbit

SSO

Sun Synchronous Orbit

Inclination

98.6

Latest

Satellite identification and parameters

Extended collection of information and parameters for DELTA 1 DEB *.

Object identification

Identified? True

Debris? True

Object name: DELTA 1 DEB *

International designator: 1972-058JQ

Object number (NORAD): 42557

Object ID (CCSDS): 42557

Country: UNITED STATES OF AMERICA (US)

Current information (Y/N): Y

RCS size: SMALL

Orbital parameters

Period: 100.748 minutes

Inclination: 98.6299 deg

SMA: 7172.178 km

Apoapsis: 802.251 km

Periapsis: 785.835 km

RAAN: 262.9077 deg

Eccentricy: 0.0011444

Argument of periapsis: 211.3698 deg

Mean anomaly: 212.6448 deg

Mean motion: 14.29309084 rev/day

Mean motion (dot): 0.00000042 rev/day2

B* drag term: 0.000033717 1/REarth

Two-line elements (TLE)

Creation date: July 2, 2025, 5:47 p.m.

Reference frame: TEME

Reference center: EARTH

Epoch: July 2, 2025, 11:13 a.m. UTC

TLE line 0: 0 DELTA 1 DEB *

TLE line 1: 1 42557U 72058JQ 25183.46777958 .00000042 00000-0 33717-4 0 9998

TLE line 2: 2 42557 98.6299 262.9077 0011444 211.3698 212.6448 14.29309084605519

Live tracking on map

Real-time ground track for satellite DELTA 1 DEB *.

In-orbit conjunctions

A list of the most updated potential collisions computed for object DELTA 1 DEB *.

Target Orbit TCA Probability of collision Miss distance Type
DMSP 5D-2 F11 DEB SSO 2025-06-03 17:41:15 0.0001442026 254.0 (m) DEBRIS
CZ-6A DEB SSO 2025-01-28 00:39:19 0.000127981 215.0 (m) DEBRIS
THOR BURNER 2 R/B SSO 2025-01-23 22:27:56 0.000126728 489.0 (m) ROCKET BODY
CZ-6A DEB LEO 2025-01-15 00:59:01 0.0001809405 706.0 (m) DEBRIS
CZ-6A DEB LEO 2025-01-08 17:45:34 0.0006842276 299.0 (m) DEBRIS

Associated space launch

Earth observation satellite

DELTA 1 DEB * was lifted into orbit during the mission ‘Delta 0900 | Landsat 1’, on board a Delta 0900 space rocket.

The launch took place on July 23, 1972, 6:06 p.m. from Space Launch Complex 2W.

For more information about the launch, click the button.

Launch to space Delta 0900 | Landsat 1
Delta 0900 | Landsat 1

Agency: N/A

Status: Launch Successful

Launch date: July 23, 1972, 6:06 p.m. UTC

Rocket: Delta 0900

Launch pad: Space Launch Complex 2W

Location: Vandenberg SFB, CA, USA

...

Latest news about this satellite

There are no fresh news available about this satellite. Check back as we update our databases every day.


Newsletter sign-up

Weekly statistics, charts and insights to help you stay on top of the space industry.